Volver al catálogo

SKYCRAFT 4E

ActivoCienciaSSO
NORAD 65227·PAYLOAD·🇦🇺 Australia

Lanzado Jul 23, 2025 desde Vandenberg Space Force Base

Loading…

Próximos Pases (próximas 24 horas)

TLE

ActualizadoSource: Space-Track

Época: Sep 14, 2026, 14:30 UTC

1 65227U 25154L   26257.60436157  .00005087  00000-0  42584-3 0  9999
2 65227  97.6620 320.8441 0003903 350.6441   9.4708 14.98880487 60724

Sigue SKYCRAFT 4E en tiempo real con AllMySat

Download on the App Store